Flag for Germany Weather past 2 weeks in Delmenhorst, Lower Saxony, Germany

Now
77 °F

Passing clouds.


Feels Like: 79 °F
Forecast: 66 / 87 °F
Wind: 9 mph from Northwest

Location: Bremen Airport

Current Time: Jul 4, 2015 at 11:48:15 PM

Latest Report: Jul 4, 2015 at 11:20 PM


Visibility: N/A

Pressure: 30.07 "Hg

Humidity: 69%

Dew point: 66 °F

Location of DelmenhorstLocation

Historic Weather in Delmenhorst — Graph

°F

Delmenhorst temperature yesterday

Maximum temperature yesterday: 86 °F (at 3:20 PM)
Minimum temperature yesterday: 68 °F (at 6:50 AM)
Average temperature yesterday: 77 °F

Past Weeks' High & Low Weather Summary

 TemperatureHumidityPressure
High97 °F (Jul 4, 3:20 PM)100% (Jun 21, 3:20 AM)30.27 "Hg (Jun 21, 3:20 AM)
Low46 °F (Jun 20, 11:20 PM)30% (Jul 2, 3:20 PM)29.65 "Hg (Jun 22, 7:50 PM)
Average65 °F71%30.06 "Hg
* Reported Jun 19 10:20 PM — Jul 4 10:20 PM, Delmenhorst, Weather by CustomWeather, © 2015

Note: Actual official high and low records may vary slightly from our data, if they occured in-between our weather recording intervals... More about our weather records

Advertising

Delmenhorst weather history for previous 24 hours

 ConditionsComfort  
Time TempWeatherWind HumidityBarometerVisibility
10:20 PM
Sat, Jul 4
79 °FScattered clouds.7 mph61%30.07 "HgN/A
9:50 PM79 °FScattered clouds.9 mph61%30.07 "HgN/A
9:20 PM82 °FBroken clouds.5 mph55%30.04 "HgN/A
8:50 PM82 °FScattered clouds.2 mph51%30.04 "HgN/A
8:20 PM84 °FScattered clouds.3 mph48%30.04 "HgN/A
7:50 PM86 °FScattered clouds.10 mph55%30.04 "HgN/A
7:20 PM90 °FThundershowers. Scattered clouds.9 mph43%30.01 "HgN/A
6:50 PM86 °FThundershowers. Scattered clouds.18 mph49%30.01 "HgN/A
6:20 PM93 °FThundershowers. Scattered clouds.6 mph41%30.01 "HgN/A
5:50 PM93 °FThundershowers. Scattered clouds.7 mph39%30.01 "HgN/A
5:20 PM97 °FScattered clouds.7 mph32%30.01 "HgN/A
4:50 PM97 °FPassing clouds.8 mph30%30.01 "HgN/A
4:20 PM97 °FPassing clouds.9 mph30%30.01 "HgN/A
3:50 PM95 °FPassing clouds.5 mph30%30.01 "HgN/A
3:20 PM97 °FPassing clouds.5 mph32%30.04 "HgN/A
2:50 PM95 °FPassing clouds.5 mph36%30.04 "HgN/A
2:20 PM93 °FPassing clouds.6 mph39%30.04 "HgN/A
1:50 PM93 °FPassing clouds.5 mph41%30.04 "HgN/A
1:20 PM91 °FSunny.5 mph38%30.07 "Hg10 mi
12:50 PM90 °FPassing clouds.6 mph41%30.07 "HgN/A
12:20 PM88 °FPassing clouds.7 mph46%30.07 "HgN/A
11:50 AM88 °FPassing clouds.5 mph46%30.07 "HgN/A
11:20 AM86 °FPassing clouds.6 mph52%30.07 "HgN/A
10:50 AM84 °FPassing clouds.7 mph55%30.07 "HgN/A
10:20 AM82 °FPassing clouds.6 mph55%30.09 "HgN/A
9:50 AM81 °FPassing clouds.6 mph58%30.09 "HgN/A
9:20 AM79 °FPassing clouds.6 mph58%30.09 "HgN/A
8:50 AM77 °FPassing clouds.5 mph61%30.09 "HgN/A
8:20 AM75 °FPassing clouds.6 mph69%30.09 "HgN/A
7:50 AM73 °FSunny.6 mph74%30.09 "Hg10 mi
7:20 AM72 °FSunny.6 mph78%30.09 "Hg10 mi
6:50 AM70 °FSunny.8 mph83%30.09 "Hg10 mi
6:20 AM70 °FSunny.6 mph83%30.12 "Hg10 mi
5:50 AM68 °FClear.6 mph88%30.12 "Hg6 mi
5:20 AM68 °FClear.5 mph88%30.12 "Hg6 mi
4:50 AM68 °FClear.5 mph88%30.12 "Hg10 mi
4:20 AM70 °FClear.5 mph83%30.15 "Hg10 mi
3:50 AM70 °FClear.6 mph88%30.15 "Hg10 mi
3:20 AM72 °FClear.5 mph83%30.15 "Hg10 mi
2:50 AM70 °FClear.5 mph88%30.15 "Hg10 mi
2:20 AM72 °FClear.6 mph83%30.18 "Hg10 mi
1:50 AM72 °FClear.6 mph83%30.18 "Hg10 mi
1:20 AM72 °FClear.6 mph88%30.18 "Hg10 mi
12:50 AM73 °FPassing clouds.5 mph83%30.21 "HgN/A
12:20 AM73 °FClear.7 mph83%30.21 "Hg10 mi
11:50 PM
Fri, Jul 3
73 °FClear.7 mph83%30.21 "Hg10 mi
11:20 PM75 °FClear.8 mph78%30.21 "Hg10 mi
Weather by CustomWeather, © 2015

See weather overviewHow to use our weather pages